Погода в Петрозаводске

Хотите узнать прогноз погоды в Петрозаводске? Тогда Вам сюда: Погода в Петрозаводске

Поиск расширенной информации на нашем сайте:

Полезная информация:

Новости сайта



02.01.2020
Опубликован Долгосрочный прогноз погоды по городам России и ближнего зарубежья на январь 2020 года.
Карты: Прогноз на январь и февраль 2020 года, Сравнение прогнозируемой аномалии приземной температуры воздуха на январь 2020 года по разным моделям.




Погода в Петрозаводске - сегодня

Время (UTC), дата Ветер
(°,м/с) 
Видим.   Явления Облачность Т
(°С)
Тd
(°С)
f(%) Тe
(°С)
Pmin
(гПа)
dP
(гПа)
Po
(мм)
O2
(г/м3)
Тmin Tmax R s Состояние
почвы
15 02.07.20 260 (З) 2{11}  21000 м  в посл. час ливневой дождь  9/6 600 м кучево-дожд., средняя 
[Cb calv|Ac trans]
+17.9 +12.7 72 +24  1004.8  1.2  744  279         
18 02.07.20 230 (ЮЗ) 20000 м  {ливн. осадки}  8/4 600 м средняя 
[Sc|Ac trans]
+17.2 +12.3 73 +24  1005.6  0.8  745  280    +21.7     
21 02.07.20 230 (ЮЗ) 20000 м    8/0 средняя, верхняя 
[Ac trans|Ci fib]
+13.1 +10.9 86 +16  1006.5  0.7  745  284           
00 03.07.20 220 (ЮЗ) 20000 м    3/0 средняя, верхняя 
[Ac trans|Ci fib]
+11.5 +10.7 95 +14  1007.1  0.5  746  286           
03 03.07.20 140 (ЮВ) 20000 м    3/0 верхняя 
[Ci fib]
+16 +13 82 +23  1006.4  -0.5  745  281  +10.4         
06 03.07.20 150 (ЮВ) 20000 м    8/0 средняя, верхняя 
[Ac trans|Ci fib]
+20.6 +12.4 59 +25  1005.5  -0.7  745  277  +10.4        сухая 
09 03.07.20 190 (Ю) 20000 м    9/5 1000 м средняя, верхняя 
[Cu med, cong|Ac trans|Ci fib]
+21.2 +13.6 62 +28  1005.3  -0.1  745  276           
12 03.07.20 240 (ЮЗ) 5{11}  22000 м    6/3 600 м средняя, верхняя 
[Cu med, cong|Ac trans|Ci fib]
+21.3 +11.2 53 +24  1006.3  745  276           
15 03.07.20 250 (З) 4{11}  20000 м    9/5 600 м средняя, верхняя 
[Cu hum|Ac trans|Ci fib]
+20.3 +9.1 49 +20  1007.7  1.3  746  278           
18 03.07.20 250 (З) 20000 м    8/0 верхняя 
[Ci fib]
+18.6 +7.7 49 +19  1008.5  0.7  747  280    +22       
21 03.07.20 250 (З) 20000 м    3/0 верхняя 
[Ci fib]
+14.8 +7.6 62 +15  1009.3  0.6  747  284           
00 04.07.20 240 (ЮЗ) 20000 м    3/0 верхняя 
[Ci fib]
+13 +7.7 70 +13  1009.7  0.3  747  286           
03 04.07.20 220 (ЮЗ) 19000 м    9/3 600 м средняя 
[Cu hum|As trans]
+15 +8.8 66 +16  1010.5  0.9  748  284  +12.9         
06 04.07.20 210 (ЮЗ) 17000 м  в посл. час ливневой дождь  9/5 600 м кучево-дожд., средняя 
[Cb cap|Ac trans]
+13.7 +11.2 85 +17  1010.3  -0.2  748  285  +12.6    0.8    влажная 
09 04.07.20 210 (ЮЗ) 24000 м    8/5 600 м кучево-дожд., средняя, верхняя 
[Cb calv|Ac trans|Ci fib]
+19.8 +10.4 55 +22  1009.4  -0.6  748  279           
12 04.07.20 260 (З) 21000 м    8/3 600 м средняя, верхняя 
[Cu hum|Ac trans|Ci fib]
+22.9 +6.5 35 +23  1008.2  -1.1  747  277           
15 04.07.20 240 (ЮЗ) 4{10}  22000 м    8/0 средняя, верхняя 
[Ac trans|Ci fib]
+20 +4.3 36 +20  1007.9  -0.4  746  280      0.8     
18 04.07.20 230 (ЮЗ) 20000 м    10/4 600 м кучево-дожд., средняя 
[Cb calv|Ac As]
+18.5 +8.8 53 +20  1007.6  -0.4  746  280    +23.7       
21 04.07.20 210 (ЮЗ) 20000 м  в посл. час ливневой дождь  10/6 600 м кучево-дожд., средняя 
[Cb cap|Ac und]
+16.2 +10.8 70 +19  1006.8  -0.9  745  282           
00 05.07.20 220 (ЮЗ) 20000 м  {ливн. осадки}  9/8 600 м кучево-дожд., средняя 
[Cb cap|Ac trans]
+15 +12.3 84 +21  1006.1  -0.7  745  282           
03 05.07.20 210 (ЮЗ) 20000 м    10/4 600 м кучево-дожд., средняя 
[Cb calv|Ac und]
+15.6 +12.5 82 +21  1005.1  -1  744  281  +14.5    0.0     
06 05.07.20 190 (Ю) 11000 м  слаб. дождь  10/6 300 м средняя 
[Sc diur, vesp|As op]
+15.5 +13.4 87 +21  1003.4  -1.6  743  281  +14.5    0.0    влажная 
09 05.07.20 190 (Ю) 11000 м  слаб. дождь  10/8 500 м средняя 
[Sc|As op]
+16.3 +14.7 90 +25  1002.2  -1.2  742  279           
12 05.07.20 240 (ЮЗ) 11000 м  слаб. дождь  10/8 800 м средняя 
[Sc|As op]
+16.2 +14.5 90 +24  1002  -0.2  742  279           
15 05.07.20 230 (ЮЗ) 3{10}  20000 м  {дождь}  10/10 800 м кучево-дожд. 
[Cb calv]
+17.6 +13.9 79 +25  1002  0.1  742  278         
Время (UTC), дата Ветер
(°,м/с) 
Видим.   Явления Облачность Т
(°С)
Тd
(°С)
f(%) Тe
(°С)
Pmin
(гПа)
dP
(гПа)
Po
(мм)
O2
(г/м3)
Тmin Tmax R s Состояние
почвы

Для получения пояснительной информации подведите курсор к названию столбца.

ПОГОДА в Петрозаводске - архив

Всё, что Вы хотите узнать о погоде в Петрозаводске - удобно и подробно!

Выберите нужную дату (начиная с 1 января 2019* года) и нажмите кнопку "Найти".
Будут отображены архивные сводки погоды по пункту Петрозаводск, начиная с указанной даты.


Отображать данные в формате CSV (для использования в таблицах Excel)


Внимание! Наш архив погоды предназначен исключительно для личного некоммерческого использования в познавательных целях. Если Вам необходимы официальные справки о состоянии погоды (для производственных, юридических, коммерческих и т.п. целей), обращайтесь в органы Росгидромета.

*Примечание: данная дата относится к архиву по метеостанциям СССР (Россия, СНГ, Балтия).
Архив по метеостанциям Зарубежной Европы и Азии (кроме Китая) хранится 10 дней, по другим регионам земного шара (Китай, Африка, Америка, Австралия, Океания) - 1 день.

Петрозаводск - район местоположения метеостанции


Название, широта, долгота, высота метеостанции:
Петрозаводск 61.8°ш. 34.3°д. 110 м над ур. моря [Российская Федерация]

Дополнительная информация

В oтличие oт бoльшинства пoгoдных сайтoв мы публикуем пoдрoбную метеoинфoрмацию в детальнoм прoфессиoнальнoм фoрмате.

Характеристики температуры и влажнoсти вoздуха измеряются на высoте 2 м в тени вдали oт зданий и деревьев.
Скoрoсть ветра измеряется на высoте 10 м (на урoвне рoста челoвека скoрoсть ветра ниже в 1.5-2 раза). Если метеoстанция нахoдится в гoрoде или в лесу, тo скoрoсть ветра занижена на 2-4 м/с пo сравнению с oткрытым местoм. Скoрoсть ветра над акватoриями крупных рек и oзёр, а также на вершинах хoлмoв на 2-5 м/с выше, чем в oбычных услoвиях.
Атмoсфернoе давление в разных тoчках местнoсти мoжет значительнo oтличаться oт давления на метеoстанции, в зависимoсти oт услoвий рельефа (при пoдъёме на 10 м давление пoнижается примернo на 1 мм рт.ст.).